Time,TemperatureF,DewpointF,PressureIn,WindDirection,WindDirectionDegrees,WindSpeedMPH,WindSpeedGustMPH,Humidity,HourlyPrecipIn,Conditions,Clouds,dailyrainin,SoftwareType,DateUTC
2013-09-23 01:00:00,58.0,-99.9,-100.00,South,187,9.0,-999.0,-999,-99.99,,,-99.99,,2013-09-23 08:00:00,
2013-09-23 01:52:00,58.0,-99.9,-100.00,South,187,9.0,-999.0,-999,-99.99,,,-99.99,,2013-09-23 08:52:00,
2013-09-23 03:00:00,57.0,-99.9,-100.00,South,180,9.0,-999.0,-999,-99.99,,,-99.99,,2013-09-23 10:00:00,
2013-09-23 03:53:00,57.0,-99.9,-100.00,South,180,9.0,-999.0,-999,-99.99,,,-99.99,,2013-09-23 10:53:00,
2013-09-23 04:00:00,58.0,-99.9,-100.00,South,186,9.0,-999.0,-999,-99.99,,,-99.99,,2013-09-23 11:00:00,
2013-09-23 04:52:00,58.0,-99.9,-100.00,South,186,9.0,-999.0,-999,-99.99,,,-99.99,,2013-09-23 11:52:00,
2013-09-23 05:00:00,57.0,-99.9,-100.00,South,178,8.0,-999.0,-999,-99.99,,,-99.99,,2013-09-23 12:00:00,
2013-09-23 05:52:00,57.0,-99.9,-100.00,South,178,8.0,-999.0,-999,-99.99,,,-99.99,,2013-09-23 12:52:00,
2013-09-23 06:00:00,57.0,-99.9,-100.00,South,173,8.0,-999.0,-999,-99.99,,,-99.99,,2013-09-23 13:00:00,
2013-09-23 06:52:00,57.0,-99.9,-100.00,South,173,8.0,-999.0,-999,-99.99,,,-99.99,,2013-09-23 13:52:00,
2013-09-23 07:00:00,58.0,-99.9,-100.00,South,172,9.0,-999.0,-999,-99.99,,,-99.99,,2013-09-23 14:00:00,
2013-09-23 07:52:00,58.0,-99.9,-100.00,South,172,9.0,-999.0,-999,-99.99,,,-99.99,,2013-09-23 14:52:00,
2013-09-23 12:00:00,61.0,-99.9,-100.00,South,186,9.0,-999.0,-999,-99.99,,,-99.99,,2013-09-23 19:00:00,
2013-09-23 12:53:00,61.0,-99.9,-100.00,South,186,9.0,-999.0,-999,-99.99,,,-99.99,,2013-09-23 19:53:00,
2013-09-23 13:00:00,62.0,-99.9,-100.00,South,184,9.0,-999.0,-999,-99.99,,,-99.99,,2013-09-23 20:00:00,
2013-09-23 13:52:00,62.0,-99.9,-100.00,South,184,9.0,-999.0,-999,-99.99,,,-99.99,,2013-09-23 20:52:00,
2013-09-23 16:00:00,62.0,-99.9,-100.00,South,181,9.0,-999.0,-999,-99.99,,,-99.99,,2013-09-23 23:00:00,
2013-09-23 16:54:00,62.0,-99.9,-100.00,South,181,9.0,-999.0,-999,-99.99,,,-99.99,,2013-09-23 23:54:00,
2013-09-23 21:00:00,57.0,-99.9,-100.00,SSW,196,2.0,-999.0,-999,-99.99,,,-99.99,,2013-09-24 04:00:00,
2013-09-23 21:54:00,57.0,-99.9,-100.00,SSW,196,2.0,-999.0,-999,-99.99,,,-99.99,,2013-09-24 04:54:00,
2013-09-23 22:00:00,55.0,-99.9,-100.00,South,169,2.0,-999.0,-999,-99.99,,,-99.99,,2013-09-24 05:00:00,
2013-09-23 22:53:00,55.0,-99.9,-100.00,South,169,2.0,-999.0,-999,-99.99,,,-99.99,,2013-09-24 05:53:00,
2013-09-23 23:00:00,54.0,-99.9,-100.00,SSE,163,2.0,-999.0,-999,-99.99,,,-99.99,,2013-09-24 06:00:00,
2013-09-23 23:52:00,54.0,-99.9,-100.00,SSE,163,2.0,-999.0,-999,-99.99,,,-99.99,,2013-09-24 06:52:00,